Regional Weather Roundup
Issued by NWS Sioux Falls, SD

Home | Current Version | Previous Version | Graphics & Text | Print | Product List | Glossary Off
Versions: 1 2 3 4 5 6 7 8 9 10 11 12 13 14 15 16 17 18 19 20 21 22 23 24 25 26 27 28 29 30 31 32 33 34 35 36 37 38 39 40 41 42 43 44 45 46 47 48 49 50

000
ASUS43 KFSD 222302
RWRFSD

WEATHER ROUNDUP FOR SE SOUTH DAKOTA/SW MINNESOTA/NW IOWA
NATIONAL WEATHER SERVICE SIOUX FALLS SD
500 PM CST MON DEC 22 2014

NOTE: "FAIR" INDICATES FEW OR NO CLOUDS BELOW 12,000 FEET WITH NO
SIGNIFICANT WEATHER AND OR OBSTRUCTIONS TO VISIBILITY.


SDZ038>040-050-052>070-230000-
SOUTHEAST SOUTH DAKOTA

CITY           SKY/WX    TMP DP  RH WIND       PRES   REMARKS
CHAMBERLAIN    NOT AVBL
HURON          CLOUDY    33  32  96 NW3       29.45R FOG
MADISON        CLOUDY    34  34 100 NW5       29.43R WCI  30
MITCHELL       CLOUDY    35  33  92 NW6       29.45R
SIOUX FALLS    LGT RAIN  37  36  96 NW6       29.43R FOG
WINNER         MIX PCPN  34  30  85 NW20G28   29.49R WCI  23
YANKTON        CLOUDY    37  34  87 NW13      29.45S
$$

MNZ071-072-080-081-089-090-097-098-230000-
SOUTHWEST MINNESOTA

CITY           SKY/WX    TMP DP  RH WIND       PRES   REMARKS
FAIRMONT       CLOUDY    36  30  80 E13       29.50S
JACKSON        CLOUDY    36  34  93 E13       29.48S
LUVERNE        RAIN      39  37  93 SE8       29.44R
MARSHALL       CLOUDY    37  34  87 SE12G17   29.48R
MONTEVIDEO     RAIN      36  36 100 SE13      29.51R
PIPESTONE      LGT RAIN  37  37 100 SE8       29.43R
REDWOOD FALLS  LGT RAIN  37  35  92 SE13      29.51R
TRACY          LGT RAIN  38  37  96 SE8       29.48R
WINDOM         LGT RAIN  36  36 100 E9G18     29.48R
WORTHINGTON    CLOUDY    37 -11  12 SE14      29.46R
$$

IAZ001>003-012>014-020>022-031-032-NEZ013-014-SDZ071-230000-
NORTHWEST IOWA

CITY           SKY/WX    TMP DP  RH WIND       PRES   REMARKS
DENISON        CLOUDY    41  41 100 SE5       29.40S
ESTHERVILLE    CLOUDY    35  35 100 SE12      29.47S FOG     WCI  27
SIOUX CITY     LGT RAIN  41  39  93 NW6       29.43R
SPENCER        LGT RAIN  38  36  92 E13       29.46R FOG
$$

ABBREVIATIONS USED IN REMARKS
   TC - TEMPERATURE IN CELSIUS
  WCI - WIND CHILL INDEX
   HX - HEAT INDEX
  VSB - VISIBILITY



USA.gov is the U.S. government's official web portal to all federal, state and local government web resources and services.